Location: Newark
(34.6283°N, 36.0776°E)
Time: 13:55:01
(UTC+00:00)

S-56A Canister/Altair - Pass Details

Date: 21 October 2019
Orbit: 634 x 2498 km, 38.9° (Epoch: 13 November)

Event Time Altitude Azimuth Distance (km) Brightness Sun altitude
Rises 01:37:55 0° 272° (W) 3,539 - -27.0°
Reaches altitude 10° 01:40:08 10° 275° (W) 2,772 - -26.5°
Exits shadow 01:44:32 46° 296° (WNW) 1,569 8.6 -25.6°
Maximum altitude 01:46:53 67° 358° (N) 1,420 8.7 -25.2°
Drops below altitude 10° 01:57:23 10° 80° (E) 4,188 12.4 -23.0°
Sets 02:01:29 0° 83° (E) 5,463 13.4 -22.2°
